Time,TemperatureF,DewpointF,PressureIn,WindDirection,WindDirectionDegrees,WindSpeedMPH,WindSpeedGustMPH,Humidity,HourlyPrecipIn,Conditions,Clouds,dailyrainin,SolarRadiationWatts/m^2,SoftwareType,DateUTC
2013-01-18 00:12:00,39.0,21.0,-100.00,NW,319,3.0,6.0,49,-99.99,,,-99.99,0.000000,,2013-01-18 08:12:00,
2013-01-18 00:22:00,39.0,21.0,-100.00,NW,319,3.0,6.0,49,-99.99,,,-99.99,0.000000,,2013-01-18 08:22:00,
2013-01-18 01:12:00,40.0,21.0,-100.00,NNW,344,5.0,7.0,46,-99.99,,,-99.99,0.000000,,2013-01-18 09:12:00,
2013-01-18 01:22:00,40.0,21.0,-100.00,NNW,344,5.0,7.0,46,-99.99,,,-99.99,0.000000,,2013-01-18 09:22:00,
2013-01-18 02:12:00,40.0,19.0,-100.00,NNW,336,6.0,7.0,43,-99.99,,,-99.99,0.000000,,2013-01-18 10:12:00,
2013-01-18 02:22:00,40.0,19.0,-100.00,NNW,336,6.0,7.0,43,-99.99,,,-99.99,0.000000,,2013-01-18 10:22:00,
2013-01-18 03:12:00,39.0,19.0,-100.00,North,358,6.0,8.0,44,-99.99,,,-99.99,0.000000,,2013-01-18 11:12:00,
2013-01-18 03:22:00,39.0,19.0,-100.00,North,358,6.0,8.0,44,-99.99,,,-99.99,0.000000,,2013-01-18 11:22:00,
2013-01-18 04:12:00,37.0,22.0,-100.00,NNE,22,4.0,7.0,54,-99.99,,,-99.99,0.000000,,2013-01-18 12:12:00,
2013-01-18 04:22:00,37.0,22.0,-100.00,NNE,22,4.0,7.0,54,-99.99,,,-99.99,0.000000,,2013-01-18 12:22:00,
2013-01-18 05:12:00,35.0,20.0,-100.00,North,356,5.0,6.0,54,-99.99,,,-99.99,0.000000,,2013-01-18 13:12:00,
2013-01-18 05:22:00,35.0,20.0,-100.00,North,356,5.0,6.0,54,-99.99,,,-99.99,0.000000,,2013-01-18 13:22:00,
2013-01-18 06:12:00,38.0,21.0,-100.00,North,357,5.0,6.0,49,-99.99,,,-99.99,0.000000,,2013-01-18 14:12:00,
2013-01-18 06:22:00,38.0,21.0,-100.00,North,357,5.0,6.0,49,-99.99,,,-99.99,0.000000,,2013-01-18 14:22:00,
2013-01-18 06:33:00,38.0,21.0,-100.00,North,357,5.0,6.0,49,-99.99,,,-99.99,0.000000,,2013-01-18 14:33:00,
2013-01-18 07:12:00,33.0,20.0,-100.00,NNE,24,3.0,5.0,59,-99.99,,,-99.99,1.000000,,2013-01-18 15:12:00,
2013-01-18 08:12:00,39.0,20.0,-100.00,WNW,284,3.0,4.0,47,-99.99,,,-99.99,110.000000,,2013-01-18 16:12:00,
2013-01-18 09:12:00,51.0,22.0,-100.00,NNW,340,6.0,8.0,32,-99.99,,,-99.99,334.000000,,2013-01-18 17:12:00,
2013-01-18 09:23:00,51.0,22.0,-100.00,NNW,340,6.0,8.0,32,-99.99,,,-99.99,334.000000,,2013-01-18 17:23:00,
2013-01-18 09:33:00,51.0,22.0,-100.00,NNW,340,6.0,8.0,32,-99.99,,,-99.99,334.000000,,2013-01-18 17:33:00,
2013-01-18 09:42:00,51.0,22.0,-100.00,NNW,340,6.0,8.0,32,-99.99,,,-99.99,334.000000,,2013-01-18 17:42:00,
2013-01-18 10:12:00,59.0,24.0,-100.00,NNW,347,9.0,12.0,26,-99.99,,,-99.99,537.000000,,2013-01-18 18:12:00,
2013-01-18 10:23:00,59.0,24.0,-100.00,NNW,347,9.0,12.0,26,-99.99,,,-99.99,537.000000,,2013-01-18 18:23:00,
2013-01-18 10:33:00,59.0,24.0,-100.00,NNW,347,9.0,12.0,26,-99.99,,,-99.99,537.000000,,2013-01-18 18:33:00,
2013-01-18 10:43:00,59.0,24.0,-100.00,NNW,347,9.0,12.0,26,-99.99,,,-99.99,537.000000,,2013-01-18 18:43:00,
2013-01-18 11:12:00,64.0,21.0,-100.00,North,350,10.0,17.0,19,0.00,,,-99.99,672.000000,,2013-01-18 19:12:00,
2013-01-18 11:22:00,64.0,21.0,-100.00,North,350,10.0,17.0,19,0.00,,,-99.99,672.000000,,2013-01-18 19:22:00,
2013-01-18 11:33:00,64.0,21.0,-100.00,North,350,10.0,17.0,19,0.00,,,-99.99,672.000000,,2013-01-18 19:33:00,
2013-01-18 11:42:00,64.0,21.0,-100.00,North,350,10.0,17.0,19,0.00,,,-99.99,672.000000,,2013-01-18 19:42:00,
2013-01-18 12:12:00,66.0,23.0,-100.00,NNW,335,10.0,17.0,19,0.00,,,0.00,726.000000,,2013-01-18 20:12:00,
2013-01-18 12:22:00,66.0,23.0,-100.00,NNW,335,10.0,17.0,19,0.00,,,0.00,726.000000,,2013-01-18 20:22:00,
2013-01-18 12:33:00,66.0,23.0,-100.00,NNW,335,10.0,17.0,19,0.00,,,0.00,726.000000,,2013-01-18 20:33:00,
2013-01-18 12:42:00,66.0,23.0,-100.00,NNW,335,10.0,17.0,19,0.00,,,0.00,726.000000,,2013-01-18 20:42:00,
2013-01-18 13:12:00,68.0,22.0,-100.00,NNW,336,10.0,16.0,17,0.00,,,-99.99,726.000000,,2013-01-18 21:12:00,
2013-01-18 13:22:00,68.0,22.0,-100.00,NNW,336,10.0,16.0,17,0.00,,,-99.99,726.000000,,2013-01-18 21:22:00,
2013-01-18 13:33:00,68.0,22.0,-100.00,NNW,336,10.0,16.0,17,0.00,,,-99.99,726.000000,,2013-01-18 21:33:00,
2013-01-18 13:42:00,68.0,22.0,-100.00,NNW,336,10.0,16.0,17,0.00,,,-99.99,726.000000,,2013-01-18 21:42:00,
2013-01-18 14:12:00,69.0,22.0,-100.00,NNW,347,10.0,15.0,17,0.00,,,0.00,648.000000,,2013-01-18 22:12:00,
2013-01-18 14:22:00,69.0,22.0,-100.00,NNW,347,10.0,15.0,17,0.00,,,0.00,648.000000,,2013-01-18 22:22:00,
2013-01-18 14:32:00,69.0,22.0,-100.00,NNW,347,10.0,15.0,17,0.00,,,0.00,648.000000,,2013-01-18 22:32:00,
2013-01-18 14:42:00,69.0,22.0,-100.00,NNW,347,10.0,15.0,17,0.00,,,0.00,648.000000,,2013-01-18 22:42:00,
2013-01-18 15:12:00,71.0,21.0,-100.00,North,5,9.0,15.0,15,0.00,,,0.00,476.000000,,2013-01-18 23:12:00,
2013-01-18 15:22:00,71.0,21.0,-100.00,North,5,9.0,15.0,15,0.00,,,0.00,476.000000,,2013-01-18 23:22:00,
2013-01-18 15:32:00,71.0,21.0,-100.00,North,5,9.0,15.0,15,0.00,,,0.00,476.000000,,2013-01-18 23:32:00,
2013-01-18 15:42:00,71.0,21.0,-100.00,North,5,9.0,15.0,15,0.00,,,0.00,476.000000,,2013-01-18 23:42:00,
2013-01-18 16:12:00,71.0,21.0,-100.00,North,3,7.0,13.0,15,0.00,,,0.00,290.000000,,2013-01-19 00:12:00,
2013-01-18 16:22:00,71.0,21.0,-100.00,North,3,7.0,13.0,15,0.00,,,0.00,290.000000,,2013-01-19 00:22:00,
2013-01-18 16:32:00,71.0,21.0,-100.00,North,3,7.0,13.0,15,0.00,,,0.00,290.000000,,2013-01-19 00:32:00,
2013-01-18 16:42:00,71.0,21.0,-100.00,North,3,7.0,13.0,15,0.00,,,0.00,290.000000,,2013-01-19 00:42:00,
2013-01-18 17:12:00,67.0,21.0,-100.00,North,10,4.0,11.0,17,0.00,,,0.00,98.000000,,2013-01-19 01:12:00,
2013-01-18 17:22:00,67.0,21.0,-100.00,North,10,4.0,11.0,17,0.00,,,0.00,98.000000,,2013-01-19 01:22:00,
2013-01-18 17:32:00,67.0,21.0,-100.00,North,10,4.0,11.0,17,0.00,,,0.00,98.000000,,2013-01-19 01:32:00,
2013-01-18 17:42:00,67.0,21.0,-100.00,North,10,4.0,11.0,17,0.00,,,0.00,98.000000,,2013-01-19 01:42:00,
2013-01-18 18:12:00,55.0,23.0,-100.00,WNW,298,5.0,6.0,29,0.00,,,0.00,3.000000,,2013-01-19 02:12:00,
2013-01-18 18:22:00,55.0,23.0,-100.00,WNW,298,5.0,6.0,29,0.00,,,0.00,3.000000,,2013-01-19 02:22:00,
2013-01-18 19:12:00,53.0,22.0,-100.00,NNW,327,5.0,7.0,29,0.00,,,0.00,0.000000,,2013-01-19 03:12:00,
2013-01-18 19:22:00,53.0,22.0,-100.00,NNW,327,5.0,7.0,29,0.00,,,0.00,0.000000,,2013-01-19 03:22:00,
2013-01-18 19:32:00,53.0,22.0,-100.00,NNW,327,5.0,7.0,29,0.00,,,0.00,0.000000,,2013-01-19 03:32:00,
2013-01-18 19:42:00,53.0,22.0,-100.00,NNW,327,5.0,7.0,29,0.00,,,0.00,0.000000,,2013-01-19 03:42:00,
2013-01-18 20:12:00,49.0,24.0,-100.00,North,5,5.0,6.0,37,0.00,,,-99.99,0.000000,,2013-01-19 04:12:00,
2013-01-18 20:22:00,49.0,24.0,-100.00,North,5,5.0,6.0,37,0.00,,,-99.99,0.000000,,2013-01-19 04:22:00,
2013-01-18 20:32:00,49.0,24.0,-100.00,North,5,5.0,6.0,37,0.00,,,-99.99,0.000000,,2013-01-19 04:32:00,
2013-01-18 20:42:00,49.0,24.0,-100.00,North,5,5.0,6.0,37,0.00,,,-99.99,0.000000,,2013-01-19 04:42:00,
2013-01-18 21:12:00,49.0,19.0,-100.00,NNW,336,6.0,8.0,30,0.00,,,0.00,0.000000,,2013-01-19 05:12:00,
2013-01-18 21:22:00,49.0,19.0,-100.00,NNW,336,6.0,8.0,30,0.00,,,0.00,0.000000,,2013-01-19 05:22:00,
2013-01-18 21:32:00,49.0,19.0,-100.00,NNW,336,6.0,8.0,30,0.00,,,0.00,0.000000,,2013-01-19 05:32:00,
2013-01-18 21:42:00,49.0,19.0,-100.00,NNW,336,6.0,8.0,30,0.00,,,0.00,0.000000,,2013-01-19 05:42:00,
2013-01-18 22:12:00,43.0,22.0,-100.00,NNW,347,4.0,7.0,43,0.00,,,0.00,0.000000,,2013-01-19 06:12:00,
2013-01-18 22:22:00,43.0,22.0,-100.00,NNW,347,4.0,7.0,43,0.00,,,0.00,0.000000,,2013-01-19 06:22:00,
2013-01-18 23:12:00,43.0,20.0,-100.00,NNW,331,5.0,7.0,40,-99.99,,,-99.99,0.000000,,2013-01-19 07:12:00,
2013-01-18 23:22:00,43.0,20.0,-100.00,NNW,331,5.0,7.0,40,-99.99,,,-99.99,0.000000,,2013-01-19 07:22:00,